• In India
  • List of Countries
  • For 7 days
  • Water Temperature
  • Satellite Maps
  • Weather Map
  • Weather Widgets
  • user-avatar
    Login

    Hourly Weather Popivka

    Today, 21 August, Tuesday

    Time Temperature Precipitation Wind Pressure Humidity
    00:00 +19°C° 0 mm 2 mps 753 mmHg 42%
    01:00 +20°C° 0 mm 1 mps 753 mmHg 43%
    02:00 +19°C° 0 mm 1 mps 753 mmHg 43%
    03:00 +19°C° 0 mm 1 mps 753 mmHg 44%
    04:00 +19°C° 0 mm 1 mps 753 mmHg 45%
    05:00 +18°C° 0 mm 1 mps 753 mmHg 45%
    06:00 +19°C° 0 mm 2 mps 753 mmHg 42%
    07:00 +23°C° 0 mm 2 mps 753 mmHg 39%
    08:00 +25°C° 0 mm 2 mps 753 mmHg 36%
    09:00 +27°C° 0 mm 2 mps 753 mmHg 32%
    10:00 +28°C° 0 mm 2 mps 753 mmHg 29%
    11:00 +30°C° 0 mm 2 mps 753 mmHg 26%
    12:00 +31°C° 0 mm 2 mps 752 mmHg 26%
    13:00 +31°C° 0 mm 3 mps 752 mmHg 26%
    14:00 +33°C° 0 mm 3 mps 751 mmHg 26%
    15:00 +31°C° 0 mm 2 mps 751 mmHg 28%
    16:00 +31°C° 0 mm 2 mps 751 mmHg 31%
    17:00 +31°C° 0 mm 2 mps 750 mmHg 33%
    18:00 +29°C° 0 mm 2 mps 751 mmHg 36%
    19:00 +27°C° 0 mm 2 mps 751 mmHg 40%
    20:00 +25°C° 0 mm 2 mps 751 mmHg 43%
    21:00 +24°C° 0.1 mm 2 mps 751 mmHg 49%
    22:00 +23°C° 0.1 mm 2 mps 751 mmHg 55%
    23:00 +21°C° 0.1 mm 2 mps 751 mmHg 61%

    Tomorrow, 22 August, Wednesday

    Time Temperature Precipitation Wind Pressure Humidity
    00:00 +21°C° 0 mm 3 mps 751 mmHg 69%
    01:00 +20°C° 0 mm 3 mps 751 mmHg 77%
    02:00 +19°C° 0 mm 3 mps 752 mmHg 85%
    03:00 +19°C° 0 mm 3 mps 752 mmHg 88%
    04:00 +18°C° 0 mm 3 mps 752 mmHg 91%
    05:00 +17°C° 0 mm 3 mps 752 mmHg 94%
    06:00 +19°C° 0 mm 4 mps 753 mmHg 85%
    07:00 +20°C° 0 mm 4 mps 753 mmHg 75%
    08:00 +21°C° 0 mm 4 mps 753 mmHg 66%
    09:00 +23°C° 0 mm 5 mps 754 mmHg 59%
    10:00 +25°C° 0 mm 5 mps 754 mmHg 51%
    11:00 +26°C° 0 mm 5 mps 754 mmHg 43%
    12:00 +27°C° 0 mm 5 mps 754 mmHg 41%
    13:00 +27°C° 0 mm 5 mps 754 mmHg 40%
    14:00 +27°C° 0 mm 5 mps 754 mmHg 38%
    15:00 +27°C° 0 mm 5 mps 754 mmHg 39%
    16:00 +26°C° 0 mm 5 mps 755 mmHg 41%
    17:00 +26°C° 0 mm 5 mps 755 mmHg 42%
    18:00 +23°C° 0 mm 4 mps 755 mmHg 47%
    19:00 +21°C° 0 mm 4 mps 756 mmHg 52%
    20:00 +19°C° 0 mm 4 mps 756 mmHg 57%
    21:00 +18°C° 0 mm 3 mps 756 mmHg 59%
    22:00 +17°C° 0 mm 3 mps 757 mmHg 61%
    23:00 +16°C° 0 mm 3 mps 757 mmHg 62%

    Day after tomorrow, 23 August, Thursday

    Time Temperature Precipitation Wind Pressure Humidity
    00:00 +14°C° 0 mm 3 mps 757 mmHg 64%
    01:00 +14°C° 0 mm 3 mps 757 mmHg 66%
    02:00 +13°C° 0 mm 3 mps 757 mmHg 68%
    03:00 +13°C° 0 mm 3 mps 757 mmHg 69%
    04:00 +13°C° 0 mm 2 mps 758 mmHg 70%
    05:00 +13°C° 0 mm 2 mps 758 mmHg 72%
    06:00 +14°C° 0 mm 3 mps 758 mmHg 64%
    07:00 +17°C° 0 mm 3 mps 758 mmHg 57%
    08:00 +20°C° 0 mm 3 mps 758 mmHg 49%
    09:00 +21°C° 0 mm 3 mps 758 mmHg 44%
    10:00 +22°C° 0 mm 3 mps 758 mmHg 39%
    11:00 +25°C° 0 mm 3 mps 758 mmHg 34%
    12:00 +25°C° 0 mm 3 mps 758 mmHg 32%
    13:00 +26°C° 0 mm 3 mps 757 mmHg 30%
    14:00 +26°C° 0 mm 3 mps 757 mmHg 29%
    15:00 +26°C° 0 mm 3 mps 757 mmHg 30%
    16:00 +26°C° 0 mm 3 mps 757 mmHg 32%
    17:00 +25°C° 0 mm 3 mps 756 mmHg 34%
    18:00 +22°C° 0 mm 3 mps 756 mmHg 39%
    19:00 +20°C° 0 mm 3 mps 757 mmHg 44%
    20:00 +18°C° 0 mm 3 mps 757 mmHg 49%
    21:00 +17°C° 0 mm 3 mps 757 mmHg 51%
    22:00 +17°C° 0 mm 3 mps 757 mmHg 53%
    23:00 +16°C° 0 mm 3 mps 757 mmHg 56%

    24 August, Friday

    Time Temperature Precipitation Wind Pressure Humidity
    00:00 +14°C° 0 mm 3 mps 757 mmHg 57%
    01:00 +14°C° 0 mm 3 mps 757 mmHg 59%
    02:00 +14°C° 0 mm 3 mps 757 mmHg 60%
    03:00 +13°C° 0 mm 3 mps 757 mmHg 61%
    04:00 +13°C° 0 mm 3 mps 757 mmHg 62%
    05:00 +12°C° 0 mm 3 mps 756 mmHg 63%
    06:00 +16°C° 0 mm 3 mps 756 mmHg 57%
    07:00 +18°C° 0 mm 3 mps 756 mmHg 51%
    08:00 +21°C° 0 mm 4 mps 756 mmHg 44%
    09:00 +23°C° 0 mm 4 mps 756 mmHg 39%
    10:00 +25°C° 0 mm 4 mps 756 mmHg 34%
    11:00 +27°C° 0 mm 4 mps 756 mmHg 28%
    12:00 +28°C° 0 mm 4 mps 755 mmHg 27%
    13:00 +29°C° 0 mm 4 mps 755 mmHg 26%
    14:00 +29°C° 0 mm 4 mps 754 mmHg 25%
    15:00 +29°C° 0 mm 4 mps 754 mmHg 26%
    16:00 +28°C° 0 mm 3 mps 754 mmHg 28%
    17:00 +28°C° 0 mm 3 mps 753 mmHg 30%
    18:00 +25°C° 0 mm 3 mps 753 mmHg 34%
    19:00 +22°C° 0 mm 3 mps 754 mmHg 37%
    20:00 +20°C° 0 mm 3 mps 754 mmHg 41%
    21:00 +19°C° 0 mm 3 mps 754 mmHg 42%
    22:00 +19°C° 0 mm 3 mps 753 mmHg 43%
    23:00 +18°C° 0 mm 3 mps 753 mmHg 45%

    25 August, Saturday

    Time Temperature Precipitation Wind Pressure Humidity
    00:00 +17°C° 0 mm 3 mps 753 mmHg 45%
    01:00 +17°C° 0 mm 3 mps 753 mmHg 46%
    02:00 +16°C° 0 mm 3 mps 753 mmHg 46%
    03:00 +16°C° 0 mm 3 mps 753 mmHg 47%
    04:00 +16°C° 0 mm 3 mps 753 mmHg 47%
    05:00 +14°C° 0 mm 3 mps 753 mmHg 48%
    06:00 +17°C° 0 mm 4 mps 753 mmHg 44%
    07:00 +20°C° 0 mm 4 mps 753 mmHg 40%
    08:00 +22°C° 0 mm 4 mps 753 mmHg 37%
    09:00 +25°C° 0 mm 4 mps 753 mmHg 33%
    10:00 +27°C° 0 mm 4 mps 753 mmHg 29%
    11:00 +29°C° 0 mm 4 mps 752 mmHg 25%
    12:00 +30°C° 0 mm 4 mps 752 mmHg 24%
    13:00 +30°C° 0 mm 3 mps 752 mmHg 22%
    14:00 +31°C° 0 mm 3 mps 751 mmHg 21%
    15:00 +30°C° 0 mm 3 mps 751 mmHg 23%
    16:00 +30°C° 0 mm 3 mps 751 mmHg 25%
    17:00 +29°C° 0 mm 3 mps 751 mmHg 27%
    18:00 +27°C° 0 mm 3 mps 751 mmHg 30%
    19:00 +25°C° 0 mm 3 mps 751 mmHg 32%
    20:00 +21°C° 0 mm 3 mps 751 mmHg 35%
    21:00 +21°C° 0 mm 3 mps 751 mmHg 36%
    22:00 +20°C° 0 mm 3 mps 751 mmHg 37%
    23:00 +19°C° 0 mm 3 mps 751 mmHg 38%

    26 August, Sunday

    Time Temperature Precipitation Wind Pressure Humidity
    00:00 +19°C° 0 mm 3 mps 751 mmHg 39%
    01:00 +18°C° 0 mm 3 mps 751 mmHg 39%
    02:00 +18°C° 0 mm 3 mps 751 mmHg 39%
    03:00 +17°C° 0 mm 3 mps 752 mmHg 39%
    04:00 +17°C° 0 mm 3 mps 752 mmHg 39%
    05:00 +16°C° 0 mm 3 mps 752 mmHg 39%
    06:00 +19°C° 0 mm 3 mps 752 mmHg 37%
    07:00 +21°C° 0 mm 3 mps 752 mmHg 34%
    08:00 +23°C° 0 mm 4 mps 752 mmHg 32%
    09:00 +26°C° 0 mm 4 mps 752 mmHg 29%
    10:00 +28°C° 0 mm 4 mps 751 mmHg 25%
    11:00 +30°C° 0 mm 4 mps 751 mmHg 21%
    12:00 +32°C° 0 mm 4 mps 751 mmHg 21%
    13:00 +32°C° 0 mm 4 mps 751 mmHg 21%
    14:00 +33°C° 0 mm 4 mps 750 mmHg 20%
    15:00 +32°C° 0 mm 4 mps 750 mmHg 23%
    16:00 +30°C° 0 mm 4 mps 750 mmHg 25%
    17:00 +30°C° 0 mm 4 mps 750 mmHg 28%
    18:00 +28°C° 0 mm 4 mps 750 mmHg 32%
    19:00 +26°C° 0 mm 4 mps 750 mmHg 35%
    20:00 +22°C° 0 mm 4 mps 750 mmHg 39%
    21:00 +22°C° 0 mm 4 mps 750 mmHg 40%
    22:00 +22°C° 0 mm 4 mps 750 mmHg 42%
    23:00 +21°C° 0 mm 4 mps 750 mmHg 43%
    Show more